OBJECT AX

Satellite information

Favourite Embed

Satellite Type and Status

UNKNOWNIN ORBIT

Key statistics

Satellite OBJECT AX at a glance.

Uptime

13815

Days in orbit

Revolutions

≈ 14.3

Per day

Orbit

LEO

Low Earth Orbit

Inclination

65.0

Latest

Satellite identification and parameters

Extended collection of information and parameters for OBJECT AX.

Object identification

Identified? True

Debris? False

Object name: OBJECT AX

International designator: 1987-060AX

Object number (NORAD): 59050

Object ID (CCSDS): 59050

Country: COMMONWEALTH OF INDEPENDENT STATES (CIS)

Current information (Y/N): Y

RCS size: SMALL

Orbital parameters

Period: 100.41 minutes

Inclination: 65.008 deg

SMA: 7156.114 km

Apoapsis: 789.27 km

Periapsis: 766.689 km

RAAN: 75.3898 deg

Eccentricy: 0.0015777

Argument of periapsis: 260.3631 deg

Mean anomaly: 99.5673 deg

Mean motion: 14.34124493 rev/day

Mean motion (dot): 0.00001029 rev/day2

B* drag term: 0.00040244 1/REarth

Two-line elements (TLE)

Creation date: May 4, 2025, 10:26 p.m.

Reference frame: TEME

Reference center: EARTH

Epoch: May 4, 2025, 2:07 p.m. UTC

TLE line 0: 0 OBJECT AX

TLE line 1: 1 59050U 87060AX 25124.58887744 .00001029 00000-0 40244-3 0 9994

TLE line 2: 2 59050 65.0080 75.3898 0015777 260.3631 99.5673 14.34124493 62325

Live tracking on map

Real-time ground track for satellite OBJECT AX.

In-orbit conjunctions

There are no conjunctions computed for OBJECT AX, at the moment. Check back to stay up to date, as we update our databases every day.

Go to all conjunctions

Associated space launch

Nuclear-powered magnetospheric research satellite

OBJECT AX was lifted into orbit during the mission ‘Tsiklon-2 | Plasma-A 2’, on board a Tsiklon-2 space rocket.

The launch took place on July 10, 1987, 3:35 p.m. from 90.

For more information about the launch, click the button.

Launch to space Tsiklon-2 | Plasma-A 2
Tsiklon-2 | Plasma-A 2

Agency: N/A

Status: Launch Successful

Launch date: July 10, 1987, 3:35 p.m. UTC

Rocket: Tsiklon-2

Launch pad: 90

Location: Baikonur Cosmodrome, Republic of Kazakhstan

...

Latest news about this satellite

There are no fresh news available about this satellite. Check back as we update our databases every day.


Newsletter sign-up

Weekly statistics, charts and insights to help you stay on top of the space industry.